Flag for Estonia Weather past 2 weeks in Pärnu, Estonia

Now
34 °F

Overcast.


Feels Like: 29 °F
Forecast: 31 / 36 °F
Wind: 6 mph from Southeast

Location: Pjarnu

Current Time: Jan 31, 2015 at 3:09:48 AM

Latest Report: Jan 31, 2015 at 2:00 AM


Visibility: 31 mi

Pressure: 29.12 "Hg

Humidity: 79%

Dew point: 28 °F

Location of PärnuLocation

Historic Weather in Pärnu — Graph

°F

Pärnu temperature yesterday

Maximum temperature yesterday: 35 °F (at 11:00 PM)
Minimum temperature yesterday: 31 °F (at 11:00 AM)
Average temperature yesterday: 33 °F

Past Weeks' High & Low Weather Summary

 TemperatureHumidityPressure
High38 °F (Jan 18, 2:00 PM)98% (Jan 17, 5:00 PM)30.36 "Hg (Jan 17, 5:00 PM)
Low16 °F (Jan 26, 3:00 AM)69% (Jan 30, 2:00 PM)29.12 "Hg (Jan 31, 1:00 AM)
Average30 °F87%29.89 "Hg
* Reported Jan 16 1:00 AM — Jan 31 1:00 AM, Pärnu, Weather by CustomWeather, © 2014

Note: Actual official high and low records may vary slightly from our data, if they occured in-between our weather recording intervals... More about our weather records

Advertising

Pärnu weather history for previous 24 hours

 ConditionsComfort  
Time TempWeatherWind HumidityBarometerVisibility
1:00 AM
Jan 31
34 °FOvercast.6 mph78%29.12 "Hg28 mi
12:00 AM34 °FOvercast.6 mph79%29.15 "Hg28 mi
11:00 PM
Jan 30
35 °FOvercast.5 mph78%29.18 "Hg22 mi
10:00 PM34 °FOvercast.5 mph79%29.18 "Hg25 mi
9:00 PM34 °FOvercast.5 mph78%29.18 "Hg22 mi
8:00 PM33 °FOvercast.5 mph74%29.18 "Hg28 mi
7:00 PM33 °FOvercast.3 mph74%29.21 "Hg22 mi
6:00 PM32 °FOvercast.2 mph75%29.21 "Hg25 mi
5:00 PM32 °FPassing clouds.3 mph73%29.21 "Hg22 mi
4:00 PM33 °FSunny.3 mph70%29.21 "Hg25 mi
3:00 PM34 °FSunny.5 mph70%29.21 "Hg25 mi
2:00 PM34 °FScattered clouds.5 mph69%29.23 "Hg17 mi
1:00 PM34 °FSunny.5 mph70%29.23 "Hg22 mi
12:00 PM33 °FSunny.5 mph74%29.23 "Hg14 mi
11:00 AM31 °FPartly sunny.5 mph79%29.23 "Hg12 mi
10:00 AM31 °FScattered clouds.5 mph80%29.23 "Hg12 mi
9:00 AM31 °FOvercast.5 mph82%29.21 "Hg11 mi
8:00 AM31 °FPassing clouds.6 mph83%29.21 "Hg11 mi
7:00 AM31 °FPassing clouds.5 mph85%29.21 "Hg10 mi
6:00 AM32 °FPassing clouds.5 mph85%29.18 "Hg9 mi
5:00 AM33 °FOvercast.3 mph86%29.18 "Hg10 mi
4:00 AM33 °FOvercast.6 mph85%29.18 "Hg10 mi
3:00 AM33 °FOvercast.5 mph84%29.18 "Hg11 mi
Weather by CustomWeather, © 2014

See weather overviewHow to use our weather pages